Weather History for Nagpur Sonegaon, India

Change the Weather History Date:

Friday, August 30, 2013

  Actual Average Record
Temperature  
Mean Temperature 82 °F -  
Max Temperature 91 °F 90 °F - ()
Min Temperature 74 °F 74 °F - ()
Cooling Degree Days 18    
Growing Degree Days 32 (Base 50)    
Moisture  
Dew Point 75 °F    
Average Humidity 82    
Maximum Humidity 96    
Minimum Humidity 60    
Precipitation  
Precipitation 0.00 in 0.21 in - ()
Sea Level Pressure  
Sea Level Pressure 29.74 in    
Wind  
Wind Speed 4 mph ()    
Max Wind Speed 9 mph    
Max Gust Speed -    
Visibility 2.9 miles    
Events      
T = Trace of Precipitation, MM = Missing Value Source: Averaged Metar Reports

Daily Weather History Graph

Daily Weather History Graph

Search for Another Location

Airport:

Trip Planner

Search our weather history database for the weather conditions in past years. The results will help you decide how hot, cold, wet, or windy it might be!

Date:

Astronomy

Aug. 30, 2013 Rise Set
Actual Time 5:56 AM IST 6:31 PM IST
Civil Twilight 5:34 AM IST 6:54 PM IST
Nautical Twilight 5:07 AM IST 7:20 PM IST
Astronomical Twilight 4:41 AM IST 7:47 PM IST
Moon 12:35 AM IST (8/30) 2:03 PM IST (8/30)
Length of Visible Light 13h 19m
Length of Day
12h 34m
Waning Crescent, 33% of the Moon is Illuminated
Aug 30
Waning Crescent
Sep 5
New
Sep 12
First Quarter
Sep 19
Full
Sep 27
Last Quarter

Hourly Weather History & Observations

Time (IST) Temp. Heat Index Dew Point Humidity Pressure Visibility Wind Dir Wind Speed Gust Speed Precip Events Conditions
12:10 AM 75.2 °F - 73.4 °F 94% 29.77 in 2.5 mi WNW 2.3 mph - N/A   Haze
1:10 AM 73.4 °F - 71.6 °F 94% 29.77 in 2.5 mi WNW 2.3 mph - N/A   Haze
3:10 AM 75.2 °F - 73.4 °F 94% 29.74 in 2.5 mi West 3.5 mph - N/A   Haze
5:10 AM 73.4 °F - 71.6 °F 94% 29.74 in 2.5 mi SW 3.5 mph - N/A   Haze
5:30 AM 75 °F - 74 °F 96% 29.73 in 1 mi WSW 3.5 mph - -   Haze
6:10 AM 75.2 °F - 73.4 °F 94% 29.77 in - North - - N/A   Haze
6:40 AM 75.2 °F - 73.4 °F 94% 29.77 in 2.5 mi WSW 2.3 mph - N/A   Haze
7:10 AM 75.2 °F - 73.4 °F 94% 29.80 in 2.5 mi West 2.3 mph - N/A   Haze
7:40 AM 75.2 °F - 73.4 °F 94% 29.80 in 2.5 mi WSW 4.6 mph - N/A   Haze
8:10 AM 77.0 °F - 73.4 °F 89% 29.80 in 2.5 mi WSW 3.5 mph - N/A   Haze
8:30 AM 78 °F - 76 °F 90% 29.77 in 1 mi WSW 3.5 mph - -   Haze
8:40 AM 77.0 °F - 75.2 °F 94% 29.80 in 2.5 mi West 4.6 mph - N/A   Haze
9:10 AM 78.8 °F - 75.2 °F 89% 29.80 in 3.1 mi West 4.6 mph - N/A   Haze
9:40 AM 78.8 °F - 75.2 °F 89% 29.80 in 3.1 mi West 5.8 mph - N/A   Haze
10:10 AM 78.8 °F - 75.2 °F 89% 29.83 in 3.1 mi WNW 6.9 mph - N/A   Haze
12:40 PM 87.8 °F 99.7 °F 77.0 °F 70% 29.77 in 3.7 mi WNW 8.1 mph - N/A   Partly Cloudy
1:10 PM 87.8 °F 99.7 °F 77.0 °F 70% 29.74 in 3.7 mi West 6.9 mph - N/A   Scattered Clouds
1:40 PM 87.8 °F 99.7 °F 77.0 °F 70% 29.74 in 3.7 mi NW 8.1 mph - N/A   Scattered Clouds
2:10 PM 87.8 °F 99.7 °F 77.0 °F 70% 29.74 in 3.7 mi NW 9.2 mph - N/A   Partly Cloudy
2:30 PM 87 °F - 75 °F 60% 29.66 in 2 mi NW 9.2 mph - -   Mostly Cloudy
2:40 PM 87.8 °F 97.6 °F 75.2 °F 66% 29.71 in 3.7 mi NW 8.1 mph - N/A   Partly Cloudy
3:10 PM 87.8 °F 97.6 °F 75.2 °F 66% 29.71 in 3.7 mi WNW 8.1 mph - N/A   Partly Cloudy
3:40 PM 87.8 °F 97.6 °F 75.2 °F 66% 29.71 in 3.7 mi WNW 6.9 mph - N/A   Partly Cloudy
4:10 PM 87.8 °F 97.6 °F 75.2 °F 66% 29.68 in 3.7 mi WNW 9.2 mph - N/A   Scattered Clouds
4:40 PM 87.8 °F 97.6 °F 75.2 °F 66% 29.68 in 3.7 mi WSW 8.1 mph - N/A   Partly Cloudy
5:10 PM 87.8 °F 97.6 °F 75.2 °F 66% 29.71 in 3.7 mi WSW 4.6 mph - N/A   Scattered Clouds
5:30 PM 85 °F - 76 °F 68% 29.64 in 2 mi SW 4.6 mph - -   Scattered Clouds
5:40 PM 86.0 °F 96.9 °F 77.0 °F 74% 29.71 in 3.7 mi WSW 4.6 mph - N/A   Scattered Clouds
6:10 PM 84.2 °F 94.1 °F 77.0 °F 79% 29.71 in 3.7 mi SW 3.5 mph - N/A   Partly Cloudy
6:40 PM 84.2 °F 94.1 °F 77.0 °F 79% 29.71 in 3.7 mi WSW 2.3 mph - N/A   Partly Cloudy
7:40 PM 84.2 °F 94.1 °F 77.0 °F 79% 29.74 in 3.1 mi West 3.5 mph - N/A   Haze
8:10 PM 84.2 °F 94.1 °F 77.0 °F 79% 29.74 in 3.1 mi West 3.5 mph - N/A   Haze
8:30 PM 79 °F - 76 °F 89% 29.71 in 2 mi West 2.3 mph - -   Haze
8:40 PM 82.4 °F 90.9 °F 77.0 °F 84% 29.74 in 3.1 mi West 2.3 mph - N/A   Haze
9:10 PM 82.4 °F 90.9 °F 77.0 °F 84% 29.77 in 3.1 mi West 3.5 mph - N/A   Haze
9:40 PM 80.6 °F 86.2 °F 75.2 °F 84% 29.77 in 3.1 mi West 3.5 mph - N/A   Haze
10:10 PM 80.6 °F 86.2 °F 75.2 °F 84% 29.77 in 3.1 mi West 3.5 mph - N/A   Haze
11:10 PM 78.8 °F - 75.2 °F 89% 29.74 in 2.5 mi West 2.3 mph - N/A   Haze
11:30 PM 76 °F - 74 °F 93% 29.72 in 1 mi WNW 3.5 mph - -   Haze